This is the latest recevied weather packets stored in our database for station/object KV9E. If no packets are shown the sender has not sent any weather packets the latest 10 day(s).
| Time | Temp. | Humidity | Pressure | Rain* | Wind** | Luminosity | Snow |
|---|---|---|---|---|---|---|---|
| 1777578452 | 14.44° C | 54% | 1014.7 hPa | 0 mm | - | 429 W/m² | - |
| 1777578148 | 14.44° C | 54% | 1014.7 hPa | 0 mm | - | 481 W/m² | - |
| 1777577844 | 14.44° C | 52% | 1014.8 hPa | 0 mm | - | 447 W/m² | - |
| 1777577540 | 13.89° C | 55% | 1014.7 hPa | 0 mm | - | 415 W/m² | - |
| 1777577237 | 13.89° C | 54% | 1014.7 hPa | 0 mm | - | 443 W/m² | - |
| 1777576933 | 13.89° C | 58% | 1015 hPa | 0 mm | - | 331 W/m² | - |
| 1777576623 | 13.33° C | 57% | 1014.7 hPa | 0 mm | - | 338 W/m² | - |
| 1777576318 | 13.33° C | 56% | 1014.6 hPa | 0 mm | - | 356 W/m² | - |
| 1777576015 | 13.33° C | 57% | 1014.7 hPa | 0 mm | - | 332 W/m² | - |
| 1777575711 | 13.33° C | 59% | 1014.8 hPa | 0 mm | - | 359 W/m² | - |
| 1777575407 | 13.33° C | 56% | 1014.7 hPa | 0 mm | - | 350 W/m² | - |
| 1777575103 | 13.33° C | 56% | 1014.6 hPa | 0 mm | - | 308 W/m² | - |
| 1777574799 | 13.33° C | 57% | 1014.7 hPa | 0 mm | - | 368 W/m² | - |
| 1777574497 | 13.89° C | 58% | 1014.7 hPa | 0 mm | - | 348 W/m² | - |
| 1777574193 | 13.89° C | 58% | 1014.6 hPa | 0 mm | - | 394 W/m² | - |
| 1777573888 | 13.89° C | 58% | 1014.8 hPa | 0 mm | - | 400 W/m² | - |
| 1777573588 | 13.89° C | 58% | 1015.1 hPa | 0 mm | - | 429 W/m² | - |
| 1777573285 | 13.33° C | 57% | 1015 hPa | 0 mm | - | 459 W/m² | - |
| 1777572981 | 13.33° C | 56% | 1015.1 hPa | 0 mm | - | 508 W/m² | - |
| 1777572677 | 13.33° C | 55% | 1015 hPa | 0 mm | - | 468 W/m² | - |
| 1777572377 | 14.44° C | 55% | 1014.9 hPa | 0 mm | - | 433 W/m² | - |
| 1777572074 | 13.89° C | 58% | 1015 hPa | 0 mm | - | 473 W/m² | - |
| 1777571768 | 13.89° C | 60% | 1014.8 hPa | 0 mm | - | 559 W/m² | - |
| 1777571466 | 13.33° C | 57% | 1014.8 hPa | 0 mm | - | 608 W/m² | - |
| 1777571162 | 13.89° C | 58% | 1014.5 hPa | 0 mm | - | 618 W/m² | - |
* Rain latest hour (hover to see other rain measurements)
** Current wind speed in m/s (hover to see current wind gust speed)